Lexington Weather

Lexington, Massachusetts, USA

28°F
12/12/2019 4:18pm 
  • Lexington Conditions: Partly cloudy
  • Temperature: 27.9°F / -2.3°CColder 1.4°F than last hour.
  • Dew Point: 19.8°FDecreased 0.3°Fsince last hour.
  • Relative Humidity: 71%Increased 3.0% since last hour.
  • Wind: Wind from WSW WSW 1 mph, 10-min avg: 1 mph, gust: 4 mph
  • Barometer: 30.66 in Steady
  • Visibility: 10 miles
  • Snow Today: 0.0 in
  •   

Regional Weather Roundup
for Boston / Norton, MA

        
000
ASUS41 KBOX 111210
RWRBOX

REGIONAL WEATHER ROUNDUP
NATIONAL WEATHER SERVICE BOSTON/NORTON MA
700 AM EST WED DEC 11 2019

NOTE:  "FAIR" INDICATES FEW OR NO CLOUDS BELOW 12,000 FEET WITH NO 
SIGNIFICANT WEATHER AND/OR OBSTRUCTIONS TO VISIBILITY.

MAZALL-111300-
EASTERN MASSACHUSETTS
  
CITY           SKY/WX    TMP DP  RH WIND       PRES   REMARKS
BOSTON         SNOW      32  27  81 W12       30.21R VSB 1/2 WCI  23  
6HR MIN TEMP:  32; 6HR MAX TEMP:  41; 6HR PCP:  0.15;                

BEVERLY        LGT SNOW  30  27  88 W7        30.18R FOG     WCI  23  
LAWRENCE       MIX PCPN  29  27  92 CALM      30.20R                  
BEDFORD        LGT SNOW  30  27  88 CALM      30.18R FOG              
BLUE HILL      NOT AVBL                                               
NORWOOD        SNOW      33  28  81 NW8       30.20R VSB 1/2 WCI  26  
MARSHFIELD     LGT SNOW  32  32 100 VRB5      30.20R VSB 1   WCI  27  
PLYMOUTH       LGT SNOW  31  30  96 N8        30.19R FOG     WCI  23  
TAUNTON        LGT SNOW  32  29  88 NW9       30.19R VSB 1   WCI  24  
NEW BEDFORD    LGT SNOW  32  31  96 VRB3      30.18R FOG              
$$

MAZALL-111300-
CAPE COD AND THE ISLANDS
  
CITY           SKY/WX    TMP DP  RH WIND       PRES   REMARKS
FALMOUTH       LGT SNOW  32  30  93 N6G14     30.18R WCI  26          
HYANNIS        LGT SNOW  34  30  85 N13       30.16R FOG     WCI  25  
CHATHAM        CLOUDY    34  32  92 N7        30.17R WCI  28          
PROVINCETOWN   LGT SNOW  32  31  96 NW16      30.19R FOG     WCI  21  
NANTUCKET      LGT RAIN  36  33  89 N17       30.16R FOG     WCI  26  
MARTHAS VNYRD  LGT SNOW  33  31  92 N9        30.19R FOG     WCI  25  
$$
 
MAZALL-111300-
CENTRAL AND WESTERN MASSACHUSETTS
  
CITY           SKY/WX    TMP DP  RH WIND       PRES   REMARKS
WORCESTER      CLOUDY    25  21  85 W6        30.13S WCI  18          
6HR MIN TEMP:  25; 6HR MAX TEMP:  32; 6HR PCP:  0.41;                

FITCHBURG      CLOUDY    28  24  85 W3        30.18R                  
ORANGE         CLOUDY    30  21  69 W5        30.17R WCI  25          
SPRINGFIELD    CLOUDY    29  24  80 W5        30.18R WCI  24          
WESTFIELD      CLOUDY    28  24  85 SW6       30.19R WCI  22          
NORTH ADAMS    CLOUDY    27  12  53 W15       30.18R WCI  15          
PITTSFIELD     CLOUDY    24  15  68 W7        30.14R WCI  16          
$$
 
RIZALL-111300-
RHODE ISLAND
  
CITY           SKY/WX    TMP DP  RH WIND       PRES   REMARKS
PROVIDENCE     LGT SNOW  31  29  92 NW9G18    30.22R VSB 1   WCI  23  
6HR MIN TEMP:  31; 6HR MAX TEMP:  38; 6HR PCP:  0.15;                

NEWPORT        LGT SNOW  32  30  92 NW16G22   30.19R VSB 1   WCI  21  
BLOCK ISLAND   LGT SNOW  32  30  93 N9        30.20R FOG     WCI  24  
SMITHFIELD     LGT SNOW  28  28 100 W12G18    30.20R VSB 3/4 WCI  18  
WESTERLY       LGT SNOW  34  29  82 N13G18    30.20R VSB 3/4 WCI  25  
$$
 
CTZALL-111300-
CONNECTICUT
  
CITY           SKY/WX    TMP DP  RH WIND       PRES   REMARKS
BRADLEY INTL   CLOUDY    29  25  85 CALM      30.20R                  
6HR MIN TEMP:  29; 6HR MAX TEMP:  34; 6HR PCP:  0.18;                

HARTFORD       CLOUDY    30  27  88 CALM      30.22F                  
BRIDGEPORT     CLOUDY    31  27  85 N6        30.26R WCI  25          
DANBURY        CLOUDY    28  23  81 N5        30.23R WCI  23          
GROTON         SNOW      31  30  96 N12G24    30.22R VSB 1/2 WCI  22  
NEW HAVEN      CLOUDY    33  29  85 N7        30.25R WCI  27          
CHESTER        LGT SNOW  30  28  93 CALM      30.20S VSB 3/4          
MERIDEN        CLOUDY    29  25  85 NE5       30.22S WCI  24          
WILLIMANTIC    FLURRIES  29  27  92 N3        30.22R                  
OXFORD         CLOUDY    27  24  89 N10       30.19R WCI  17          
$$

MEZ002-015-021-024-NHZ003-005-008-011-012-014-VTZ005-008-111300-
NORTHERN NEW ENGLAND
  
CITY           SKY/WX    TMP DP  RH WIND       PRES   REMARKS
PORTLAND ME    MOCLDY    31  24  75 NE7       30.17R WCI  24          
6HR MIN TEMP:  31; 6HR MAX TEMP:  38; 6HR PCP:  0.06;                

BANGOR ME      CLOUDY    28  11  48 NW18      30.16R WCI  15          
CONCORD NH     CLOUDY    30  18  60 NW12      30.17R WCI  20          
MANCHESTER NH  CLOUDY    30  25  81 S5        30.15S WCI  25          
NASHUA NH      CLOUDY    28  28 100 CALM      30.18S                  
PORTSMOUTH NH  FLURRIES  30  28  92 W6        30.16R WCI  24          
JAFFREY NH     CLOUDY    27  23  85 S3        30.13R                  
KEENE NH       CLOUDY    29  18  63 CALM      30.17R                  
BURLINGTON VT  MOCLDY    20   7  57 NE7       30.24R WCI  11          
MT. WASHINGTON CLOUDY     1  -6  71 NW32        N/A  WCI -25          
$$

NYZ052-076-111300-
EASTERN NEW YORK
  
CITY           SKY/WX    TMP DP  RH WIND       PRES   REMARKS
ALBANY         CLOUDY    28  12  51 W10       30.24R WCI  19          
6HR MIN TEMP:  28; 6HR MAX TEMP:  34;                                

NEW YORK CITY  LGT SNOW  33  31  92 NE14      30.24R FOG     WCI  23  
6HR MIN TEMP:  33; 6HR MAX TEMP:  40; 6HR PCP:  0.25;                

$$
 
ANZALL-111300-
MARINE OBSERVATIONS
  
STATION/POSITION TIME  TEMP    WIND        PRES    VSBY  WAVE
                       AIR SEA DIR/SP/G                  HT/PER
                 (UTC) (F)     (DEG/KT/KT) (MB)    (MI)  (FT/S)
BOSTON BUOY      1150   33 47  330/ 17/ 21 1021.2R         3/11
BUZZARDS BAY     1100   34     360/ 15/ 16 1021.8R
NANTUCKET SOUND  1150   35 43                N/A           2/ 3
MASS BAY-STELLWA 1104   31 46  330/ 17/ 19 1020.3R  1 7/8  3/ 3
ISLE OF SHOALS   1100   31     270/ 11/ 13 1020.8R
S OF BLOCK IS    1200      53                N/A           7/10
$$

......................KEY.........................
  SKY/WX - SKY CONDITION/PRESENT WEATHER
  TMP    - TEMPERATURE IN FAHRENHEIT
  DWPT   - DEWPOINT IN FAHRENHEIT
  RH     - RELATIVE HUMIDITY IN PERCENT
  WIND   - DIRECTION AND SPEED IN MPH
  PRES   - MEAN SEA LEVEL PRESSURE IN INCHES OF HG
  WCI    - WIND CHILL INDEX
  VSB    - VISIBILITY IN MILES
  HX     - HEAT INDEX
  TC     - TEMPERATURE IN CELSIUS
  VRB    - VARIABLE WIND DIRECTION
  N/A    - NOT AVAILABLE
  
      

Other recent Regional Weather Roundups

Thu Dec 12, 4:01pm

Thu Dec 12, 3:10pm

Thu Dec 12, 3:00pm

Thu Dec 12, 2:10pm

Thu Dec 12, 2:01pm

Thu Dec 12, 1:10pm

Thu Dec 12, 1:00pm

Thu Dec 12, 12:10pm

Thu Dec 12, 12:00pm

Thu Dec 12, 11:10am

Thu Dec 12, 11:00am

Thu Dec 12, 10:10am

Thu Dec 12, 8:10am

Thu Dec 12, 8:00am

Thu Dec 12, 7:10am

Thu Dec 12, 7:00am

Thu Dec 12, 6:10am

Thu Dec 12, 6:00am

Thu Dec 12, 5:10am

Thu Dec 12, 5:00am

Thu Dec 12, 4:10am

Thu Dec 12, 4:00am

Thu Dec 12, 3:10am

Thu Dec 12, 3:00am

Thu Dec 12, 2:10am

Thu Dec 12, 2:00am

Thu Dec 12, 1:10am

Thu Dec 12, 1:00am

Thu Dec 12, 12:10am

Thu Dec 12, 12:00am

Wed Dec 11, 11:10pm

Wed Dec 11, 11:00pm

Wed Dec 11, 10:10pm

Wed Dec 11, 10:00pm

Wed Dec 11, 9:10pm

Wed Dec 11, 9:00pm

Wed Dec 11, 8:10pm

Wed Dec 11, 8:00pm

Wed Dec 11, 7:10pm

Wed Dec 11, 7:00pm

Wed Dec 11, 6:10pm

Wed Dec 11, 6:00pm

Wed Dec 11, 5:10pm

Wed Dec 11, 5:01pm

Wed Dec 11, 4:10pm

Wed Dec 11, 4:00pm

Wed Dec 11, 3:10pm

Wed Dec 11, 3:01pm

Wed Dec 11, 2:10pm

Wed Dec 11, 2:00pm

Wed Dec 11, 1:10pm

Wed Dec 11, 1:00pm

Wed Dec 11, 12:10pm

Wed Dec 11, 12:00pm

Wed Dec 11, 11:10am

Wed Dec 11, 11:00am

Wed Dec 11, 10:10am

Wed Dec 11, 10:00am

Wed Dec 11, 9:10am

Wed Dec 11, 9:00am

Wed Dec 11, 8:10am

Wed Dec 11, 8:00am

Wed Dec 11, 7:00am

Wed Dec 11, 6:10am

Wed Dec 11, 6:00am

Wed Dec 11, 5:10am

Wed Dec 11, 5:00am

Wed Dec 11, 4:10am

Wed Dec 11, 4:00am

Wed Dec 11, 3:10am

Wed Dec 11, 3:01am

Wed Dec 11, 2:10am

Wed Dec 11, 2:01am

Wed Dec 11, 1:10am

Wed Dec 11, 1:00am

Wed Dec 11, 12:10am

Wed Dec 11, 12:00am

Tue Dec 10, 11:10pm

Tue Dec 10, 11:00pm

Tue Dec 10, 10:10pm

Tue Dec 10, 10:00pm

Tue Dec 10, 9:10pm

Tue Dec 10, 9:01pm

Tue Dec 10, 8:10pm

Tue Dec 10, 8:00pm

Tue Dec 10, 7:10pm

Tue Dec 10, 7:01pm

Tue Dec 10, 6:10pm

Tue Dec 10, 6:01pm

Tue Dec 10, 5:10pm

Tue Dec 10, 5:00pm

Tue Dec 10, 4:10pm

Tue Dec 10, 4:01pm

Tue Dec 10, 3:10pm

Tue Dec 10, 3:01pm

Tue Dec 10, 2:10pm

Tue Dec 10, 2:01pm

Tue Dec 10, 1:10pm

Tue Dec 10, 1:00pm

Tue Dec 10, 12:10pm

Tue Dec 10, 12:00pm

Tue Dec 10, 11:10am

Tue Dec 10, 11:00am

Tue Dec 10, 10:10am

Tue Dec 10, 10:00am

Tue Dec 10, 9:10am

Tue Dec 10, 9:01am

Tue Dec 10, 8:10am

Tue Dec 10, 8:00am

Tue Dec 10, 7:10am

Tue Dec 10, 7:00am

Tue Dec 10, 6:10am

Tue Dec 10, 6:00am

Tue Dec 10, 5:10am

Tue Dec 10, 5:00am

Tue Dec 10, 4:10am

Tue Dec 10, 4:00am

Tue Dec 10, 3:10am

Tue Dec 10, 3:00am

Tue Dec 10, 2:10am

Tue Dec 10, 2:01am

Tue Dec 10, 1:10am

Tue Dec 10, 1:00am

Tue Dec 10, 12:10am

Tue Dec 10, 12:01am

Mon Dec 9, 11:10pm

Mon Dec 9, 11:01pm

Mon Dec 9, 10:10pm

Mon Dec 9, 10:00pm

Mon Dec 9, 9:10pm

Mon Dec 9, 9:01pm

Mon Dec 9, 8:10pm

Mon Dec 9, 8:01pm

Mon Dec 9, 7:10pm

Mon Dec 9, 7:00pm

Mon Dec 9, 6:10pm

Mon Dec 9, 6:00pm

Mon Dec 9, 5:10pm

Mon Dec 9, 5:01pm

Mon Dec 9, 4:10pm

Meta data:

ID: d0b16feb-4181-4ed4-a071-f8a9b1ece5b2
Link: https://api.weather.gov/products/d0b16feb-4181-4ed4-a071-f8a9b1ece5b2